星链-4166 (STARLINK-4166 )

导读 | 星芒AI

STARLINK-4166 是 SpaceX Starlink 项目中的一颗低轨通信卫星,属于该星座的多个发射批次之一。该卫星旨在为全球用户提供高速互联网服务,尤其关注网络覆盖不足的地区。它运行在约 550 公里的轨道高度,采用先进的推进系统和激光通信技术,以提高数据传输效率和系统稳定性。STARLINK-4166 的发射和运行有助于增强 Starlink 网络的冗余性和全球服务能力。

基本信息
目录编号:
53291
目录名称:
STARLINK-4166
国际标识:
2022-086BB
轨道中心:
EARTH
卫星名称:
星链-4166
卫星全名:
星链-4166 (STARLINK-4166 )
卫星状态:
在轨 (已飞行1246 天)
发射日期:
2022-07-24 UTC
国别 :
美国 (US)
星等 :
--
轨道信息
数据来源 国际轨道数据 AOE轨道数据
星历时间 2025-12-21T02:27:54+0800
10小时前
查看轨道信息
2025-12-19T01:00:00+0800
2天前
查看轨道信息
半长轴 6917.876km 6917.846km
偏心率 0.0001599 0.0001694
轨道倾角 53.217° 53.217°
近地点辐角 90.533° 89.635°
升交点赤经 173.198° 182.453°
平近点角 269.584° 229.162°
近地点 538.632km 538.539km
远地点 540.846km 540.883km
周期 95.437分钟 95.437分钟
每日圈数 15.088415 15.088515
详细信息
固有亮度:
5
最大亮度:
2.5
卫星平台:
Starlink v1.5
覆盖范围:
全球
运营商:
太空探索技术公司
运营商所在国:
美国
制造商(研发单位):
太空探索技术公司
制造商所在国:
美国
使用方式:
暂无
卫星简介
星链(Starlink)计划是由太空探索技术公司(SpaceX)提出的一个巨型低轨卫星互联网星座项目,计划在2019年至2024年间在太空搭建由约1.2万颗卫星组成的“星链”网络,其中1584颗将部署在地球上空550千米处的近地轨道,并从2020年开始工作。该卫星仍在工作。
2D轨道图
3D轨道图
轨道高度分析图
轨道倾角分析图
轨道综合分析图
查看轨道综合分析图